This is the latest recevied weather packets stored in our database for station/object EA2RCU-15. If no packets are shown the sender has not sent any weather packets the latest 10 day(s).
| Time | Temp. | Humidity | Pressure | Rain* | Wind** | Luminosity | Snow |
|---|---|---|---|---|---|---|---|
| 1777200305 | 21.11° C | 38% | 1005 hPa | 0 mm | - | - | - |
| 1777200005 | 21.11° C | 38% | 1005 hPa | 0 mm | - | - | - |
| 1777199705 | 20.56° C | 39% | 1005 hPa | 0 mm | - | - | - |
| 1777199406 | 20.56° C | 39% | 1003 hPa | 0 mm | - | - | - |
| 1777199105 | 20.56° C | 39% | 1003 hPa | 0 mm | - | - | - |
| 1777198806 | 21.11° C | 40% | 1003 hPa | 0 mm | - | - | - |
| 1777198505 | 20.56° C | 41% | 1003 hPa | 0 mm | - | - | - |
| 1777198205 | 20.56° C | 42% | 1004 hPa | 0 mm | - | - | - |
| 1777197905 | 20° C | 42% | 1004 hPa | 0 mm | - | - | - |
| 1777197605 | 20° C | 42% | 1004 hPa | 0 mm | - | - | - |
| 1777197306 | 20° C | 40% | 1004 hPa | 0 mm | - | - | - |
| 1777197005 | 20.56° C | 42% | 1004 hPa | 0 mm | - | - | - |
| 1777196706 | 20.56° C | 41% | 1004 hPa | 0 mm | - | - | - |
| 1777196405 | 20.56° C | 42% | 1004 hPa | 0 mm | - | - | - |
| 1777196106 | 20° C | 44% | 1004 hPa | 0 mm | - | - | - |
| 1777195805 | 19.44° C | 45% | 1004 hPa | 0 mm | - | - | - |
| 1777195506 | 19.44° C | 48% | 1004 hPa | 0 mm | - | - | - |
| 1777195205 | 18.89° C | 49% | 1004 hPa | 0 mm | - | - | - |
| 1777194905 | 18.33° C | 50% | 1004 hPa | 0 mm | - | - | - |
| 1777194605 | 17.78° C | 50% | 1004 hPa | 0 mm | - | - | - |
| 1777194305 | 17.78° C | 49% | 1004 hPa | 0 mm | - | - | - |
| 1777194005 | 17.78° C | 49% | 1004 hPa | 0 mm | - | - | - |
| 1777193705 | 17.78° C | 50% | 1003 hPa | 0 mm | - | - | - |
| 1777193406 | 17.78° C | 52% | 1003 hPa | 0 mm | - | - | - |
| 1777193106 | 17.78° C | 53% | 1003 hPa | 0 mm | - | - | - |
* Rain latest hour (hover to see other rain measurements)
** Current wind speed in m/s (hover to see current wind gust speed)